{"data":{"norad_id":59084,"intl_designator":"2024-041L","name":"STARLINK-31261","alt_names":[],"object_type":"PAYLOAD","status":"ACTIVE","operator":null,"country":"US","launch_date":"2024-02-29","launch_site_code":"AFETR","launch_vehicle":null,"mission":null,"orbit_class":"UNKNOWN","rcs_meters":null,"size_class":null,"mass_kg":null,"dimensions":null,"purposes":["comms"],"wikipedia_slug":null,"has_3d_model":false,"image_url":null,"decayed_at":null,"tle_current":{"epoch":"2026-09-20T02:37:53.903424Z","epoch_age_seconds":192594,"freshness":"STALE","line1":"1 59084U 24041L   26263.10965166  .00000027  00000+0  10496-4 0  9992","line2":"2 59084  43.0005 292.8823 0000900 276.7404  83.3345 15.27575831144057","mean_motion":15.27575831,"eccentricity":9.0e-5,"inclination_deg":43.0005,"raan_deg":292.8823,"arg_perigee_deg":276.7404,"mean_anomaly_deg":83.3345,"bstar":1.0496e-5,"rev_number":14405,"period_min":94.267005982762,"perigee_km":482.44407168167,"apogee_km":483.67908742599,"semimajor_km":6861.1985795538,"source":"CELESTRAK","updated_at":"2026-09-21T09:00:34.035432Z"}}}